Weather History for Massena, NY

Change the Weather History Date:

Wednesday, February 5, 2014

  Actual Average Record
Temperature  
Mean Temperature 12 °F 16 °F  
Max Temperature 18 °F 26 °F 52 °F (1962)
Min Temperature 5 °F 5 °F -27 °F (1978)
Degree Days  
Heating Degree Days 53 49  
Month to date heating degree days 229 249  
Since 1 July heating degree days 5011 4912  
Moisture  
Dew Point 11 °F    
Average Humidity 76    
Maximum Humidity 88    
Minimum Humidity 63    
Precipitation  
Precipitation 0.06 in 0.06 in 0.66 in (1971)
Month to date precipitation 0.46 0.29  
Year to date precipitation 1.92 2.47  
Sea Level Pressure  
Sea Level Pressure 30.09 in    
Wind  
Wind Speed 9 mph (NNE)    
Max Wind Speed 22 mph    
Max Gust Speed 26 mph    
Visibility 3 miles    
Events Fog , Snow    
T = Trace of Precipitation, MM = Missing Value Source: NWS Daily Summary

Daily Weather History Graph

Daily Weather History Graph

Search for Another Location

Airport:

Trip Planner

Search our weather history database for the weather conditions in past years. The results will help you decide how hot, cold, wet, or windy it might be!

Date:

Astronomy

Feb. 05, 2014 Rise Set
Actual Time 7:14 AM EST 5:13 PM EST
Civil Twilight 6:43 AM EST 5:44 PM EST
Nautical Twilight 6:08 AM EST 6:19 PM EST
Astronomical Twilight 5:34 AM EST 6:53 PM EST
Moon 10:08 AM EST (2/5) No Moon Set
Length of Visible Light 11h 00m
Length of Day
9h 59m
Waxing Crescent, 39% of the Moon is Illuminated
Feb 5
Waxing Crescent
Feb 6
First Quarter
Feb 14
Full
Feb 22
Last Quarter
Mar 1
New

Hourly Weather History & Observations

Time (EST) Temp. Windchill Dew Point Humidity Pressure Visibility Wind Dir Wind Speed Gust Speed Precip Events Conditions
12:53 AM 16.0 °F 10.4 °F 9.0 °F 74% 30.35 in 10.0 mi NNE 3.5 mph - N/A   Overcast
1:53 AM 17.1 °F - 9.0 °F 71% 30.35 in 10.0 mi Calm Calm - N/A   Overcast
2:53 AM 17.1 °F 11.7 °F 10.0 °F 74% 30.32 in 10.0 mi NNE 3.5 mph - N/A   Overcast
3:53 AM 18.0 °F 12.7 °F 10.0 °F 71% 30.27 in 10.0 mi NE 3.5 mph - N/A   Overcast
4:53 AM 18.0 °F - 10.0 °F 71% 30.27 in 10.0 mi Calm Calm - N/A   Overcast
5:29 AM 18.0 °F 11.1 °F 10.9 °F 74% 30.23 in 2.5 mi NE 4.6 mph - 0.00 in Snow Light Snow
5:53 AM 17.1 °F 8.7 °F 12.0 °F 81% 30.24 in 1.8 mi NE 5.8 mph - 0.00 in Snow Light Snow
6:53 AM 18.0 °F 8.7 °F 14.0 °F 84% 30.23 in 1.8 mi NE 6.9 mph - 0.00 in Snow Light Snow
7:20 AM 18.0 °F 6.1 °F 14.0 °F 84% 30.18 in 1.0 mi NE 10.4 mph - 0.00 in Snow Light Snow
7:29 AM 18.0 °F 6.1 °F 14.0 °F 84% 30.18 in 0.8 mi NNE 10.4 mph - 0.00 in Snow Light Snow
7:53 AM 17.1 °F 6.6 °F 12.9 °F 84% 30.19 in 0.5 mi NNE 8.1 mph - 0.01 in Fog , Snow Light Snow
8:07 AM 17.1 °F 3.6 °F 12.9 °F 84% 30.14 in 0.8 mi NNE 12.7 mph - 0.00 in Snow Light Snow
8:43 AM 18.0 °F 4.8 °F 12.9 °F 81% 30.12 in 1.0 mi NE 12.7 mph - 0.00 in Snow Light Snow
8:53 AM 18.0 °F 4.8 °F 14.0 °F 84% 30.14 in 1.0 mi NE 12.7 mph - 0.00 in Snow Light Snow
9:08 AM 18.0 °F 4.8 °F 14.0 °F 84% 30.10 in 1.8 mi NE 12.7 mph - 0.00 in Snow Light Snow
9:17 AM 18.0 °F 4.8 °F 14.0 °F 84% 30.11 in 2.0 mi NE 12.7 mph - 0.00 in Snow Light Snow
9:28 AM 18.0 °F 4.8 °F 14.0 °F 84% 30.10 in 3.0 mi NE 12.7 mph - 0.00 in Snow Light Snow
9:44 AM 18.0 °F 3.6 °F 12.9 °F 81% 30.09 in 1.8 mi NE 15.0 mph - 0.00 in Snow Light Snow
9:50 AM 17.6 °F 4.3 °F 12.2 °F 79% 30.08 in 1.2 mi NE 12.7 mph - 0.00 in Snow Light Snow
9:53 AM 18.0 °F 3.1 °F 12.9 °F 81% 30.11 in 1.2 mi NE 16.1 mph - 0.00 in Snow Light Snow
10:41 AM 18.0 °F 1.3 °F 12.9 °F 81% 30.03 in 0.8 mi NE 20.7 mph - 0.00 in Snow Light Snow
10:53 AM 18.0 °F 1.3 °F 12.9 °F 81% 30.05 in 0.5 mi NE 20.7 mph 26.5 mph 0.00 in Snow Snow
11:36 AM 18.0 °F 2.2 °F 12.9 °F 81% 29.98 in 1.0 mi NE 18.4 mph - 0.00 in Snow Light Snow
11:43 AM 17.1 °F 1.5 °F 12.9 °F 84% 29.97 in 0.8 mi NE 17.3 mph - 0.00 in Snow Light Snow
11:53 AM 17.1 °F 1.5 °F 12.0 °F 81% 30.00 in 0.5 mi NE 17.3 mph 25.3 mph 0.00 in Snow Snow
12:53 PM 16.0 °F 0.1 °F 10.9 °F 81% 29.97 in 0.8 mi NNE 17.3 mph - 0.00 in Snow Light Snow
1:53 PM 16.0 °F 0.6 °F 10.9 °F 81% 29.95 in 0.5 mi NE 16.1 mph - 0.00 in Snow Snow
2:53 PM 16.0 °F 0.1 °F 10.9 °F 81% 29.92 in 0.5 mi NE 17.3 mph - 0.01 in Snow Snow
3:53 PM 16.0 °F 2.3 °F 12.0 °F 84% 29.94 in 0.8 mi NNE 12.7 mph - 0.00 in Snow Light Snow
4:33 PM 17.1 °F 6.6 °F 12.0 °F 81% 29.95 in 0.5 mi NE 8.1 mph - 0.00 in Snow Snow
4:53 PM 17.1 °F 7.6 °F 12.9 °F 84% 29.98 in 0.5 mi NNE 6.9 mph - 0.01 in Fog , Snow Snow
5:36 PM 17.1 °F 11.7 °F 12.9 °F 84% 29.97 in 0.8 mi North 3.5 mph - 0.03 in Snow Light Snow
5:53 PM 17.1 °F 6.6 °F 12.9 °F 84% 30.00 in 1.0 mi North 8.1 mph - 0.03 in Snow Light Snow
6:01 PM 17.1 °F 5.8 °F 12.0 °F 81% 29.98 in 1.5 mi NNE 9.2 mph - 0.00 in Snow Light Snow
6:12 PM 17.1 °F 10.0 °F 12.0 °F 81% 29.98 in 2.0 mi North 4.6 mph - 0.00 in Snow Light Snow
6:22 PM 16.0 °F 6.3 °F 12.0 °F 84% 29.99 in 1.8 mi NNW 6.9 mph - 0.00 in Snow Light Snow
6:53 PM 15.1 °F 3.3 °F 10.0 °F 80% 30.03 in 1.8 mi NNW 9.2 mph - 0.00 in Snow Light Snow
7:03 PM 15.1 °F 4.2 °F 10.0 °F 80% 30.00 in 2.0 mi NNW 8.1 mph - 0.00 in Snow Light Snow
7:12 PM 15.1 °F 3.3 °F 10.0 °F 80% 30.01 in 1.8 mi North 9.2 mph - 0.00 in Snow Light Snow
7:19 PM 15.1 °F 4.2 °F 9.0 °F 77% 30.01 in 2.0 mi NNW 8.1 mph - 0.00 in Snow Light Snow
7:50 PM 14.0 °F 2.9 °F 8.6 °F 79% 30.03 in 4.0 mi NNW 8.1 mph - 0.00 in Snow Light Snow
7:53 PM 14.0 °F 2.0 °F 8.1 °F 77% 30.06 in 4.0 mi NNW 9.2 mph - 0.00 in Snow Light Snow
8:53 PM 12.9 °F 1.6 °F 3.0 °F 65% 30.09 in 10.0 mi NNW 8.1 mph - 0.00 in   Mostly Cloudy
9:53 PM 10.9 °F 0.2 °F -0.0 °F 61% 30.14 in 10.0 mi NW 6.9 mph - N/A   Overcast
10:53 PM 9.0 °F -2.2 °F -0.9 °F 64% 30.18 in 10.0 mi NW 6.9 mph - N/A   Overcast
11:53 PM 5.0 °F -4.1 °F -4.0 °F 66% 30.21 in 10.0 mi West 4.6 mph - N/A   Scattered Clouds